Regional Weather Roundup
Issued by NWS

Home | Current Version | Previous Version | Graphics & Text | Print | Product List | Glossary On
Versions: 1 2 3 4 5 6 7 8 9 10 11 12 13 14 15 16 17 18 19 20 21 22 23 24 25 26 27 28 29 30 31 32 33 34 35 36 37 38 39 40 41 42 43 44 45 46 47 48 49 50
531
ASUS43 KMKX 181710
RWRWI

WISCONSIN REGIONAL WEATHER ROUNDUP
NATIONAL WEATHER SERVICE MILWAUKEE/SULLIVAN WI
1100 AM CST MON DEC 18 2017

NOTE: "FAIR" INDICATES FEW OR NO CLOUDS BELOW 12,000 FEET WITH NO
SIGNIFICANT WEATHER AND/OR OBSTRUCTIONS TO VISIBILITY.

WIZ001-002-006>008-014>016-023>028-181800-
NORTHWEST WISCONSIN

CITY           SKY/WX    TMP DP  RH WIND       PRES   REMARKS
SUPERIOR ARPT  CLOUDY    30  26  83 SW10      29.71S FOG     WCI  21
ASHLAND        CLOUDY    31  25  78 S17       29.70F WCI  19
HAYWARD        CLOUDY    29  25  85 S12       29.73F FOG     WCI  19
SIREN          CLOUDY    33  27  77 SW8       29.73F WCI  26
CUMBERLAND     CLOUDY    30  28  93 S8        29.75F FOG     WCI  23
RICE LAKE      CLOUDY    30  28  93 CALM      29.77F FOG
CHETEK         CLOUDY    30  28  91 S8        29.77F FOG     WCI  23
LADYSMITH      CLOUDY    29  29  98 S9        29.78F FOG     WCI  21
EAU CLAIRE     CLOUDY    30  28  92 S12       29.80F FOG     WCI  20
MENOMONIE      CLOUDY    32  29  90 S12       29.80F FOG     WCI  23
NEW RICHMOND   CLOUDY    32  26  79 S15       29.76F WCI  21
OSCEOLA        CLOUDY    32  26  81 S8        29.78F WCI  24
$$

WIZ003>005-009-010-017-018-181800-
NORTH CENTRAL WISCONSIN

CITY           SKY/WX    TMP DP  RH WIND       PRES   REMARKS
MANITOWISH WTR CLOUDY    26  26 100 SW7       29.72F FOG     WCI  18
ARBOR VITAE    CLOUDY    29  28  95 SW7       29.73S FOG     WCI  22
WOODRUFF       CLOUDY    29  28  95 SW7       29.73S FOG     WCI  22
RHINELANDER    CLOUDY    27  27 100 SW8       29.75F FOG     WCI  19
EAGLE RIVER    CLOUDY    27  27 100 SW7       29.72F FOG     WCI  19
LAND O LAKES   CLOUDY    28  28  97 SW6       29.73F FOG     WCI  22
PHILLIPS       CLOUDY    26  26 100 SW6       29.75F FOG     WCI  20
TOMAHAWK       CLOUDY    27  26  94 CALM      29.77F FOG
MEDFORD        FOG       27  26  97 SW8       29.78F VSB 1   WCI  19
MERRILL        CLOUDY    28  28 100 SW8       29.79F FOG     WCI  19
$$

WIZ029-030-035-036-043>047-181800-
CENTRAL WISCONSIN

CITY           SKY/WX    TMP DP  RH WIND       PRES   REMARKS
WAUSAU         CLOUDY    28  28 100 SW10      29.78F FOG     WCI  19
MOSINEE        CLOUDY    28  28 100 SW8       29.82S FOG     WCI  20
MARSHFIELD     CLOUDY    28  27  96 SW13      29.80F FOG     WCI  17
STEVENS POINT  CLOUDY    27  27 100 SW9       29.83S FOG     WCI  18
WAUPACA        CLOUDY    33  29  88 SW10      29.84F FOG     WCI  24
WAUTOMA        CLOUDY    33  29  85 SW8       29.85F FOG     WCI  26
WISC RAPIDS    CLOUDY    29  27  92 SW9       29.85F FOG     WCI  20
CAMP DOUGLAS   CLOUDY   N/A N/A N/A SW8       29.86S
$$

WIZ011>013-019>022-031-037>040-048>050-181800-
NORTHEAST WISCONSIN

CITY           SKY/WX    TMP DP  RH WIND       PRES   REMARKS
ANTIGO         CLOUDY    26  26 100 SW9       29.78S FOG     WCI  17
SHAWANO        CLOUDY    33  30  89 SW10      29.81F FOG     WCI  24
OCONTO         CLOUDY    31  28  89 SW7       29.81F WCI  24
STURGEON BAY   CLOUDY    31  28  89 SW13      29.81F FOG     WCI  21
GREEN BAY      CLOUDY    32  27  81 SW9       29.83F WCI  24
MANITOWOC      CLOUDY    34  29  82 SW13G18   29.84F HAZE    WCI  25
APPLETON       CLOUDY    30  30 100 SW12      29.82F FOG     WCI  21
CLINTONVILLE   CLOUDY    30  28  93 SW10      29.82F FOG     WCI  21
OSHKOSH        CLOUDY    32  29  88 SW10G16   29.84F FOG     WCI  24
$$

WIZ032>034-041-042-053>061-181800-
SOUTHWEST WISCONSIN

CITY           SKY/WX    TMP DP  RH WIND       PRES   REMARKS
LA CROSSE      CLOUDY    32  28  85 S10       29.88F FOG     WCI  24
SPARTA         CLOUDY    30  28  91 SW5       29.87F WCI  25
VIROQUA        CLOUDY    30  30 100 CALM      29.86S
BOSCOBEL       CLOUDY    37  29  72 W8G18     29.90F WCI  31
PRAIRIE DU CHI CLOUDY    34  27  76 SW6       29.92S HAZE    WCI  29
PLATTEVILLE    CLOUDY    33  32  96 SW14      29.92R WCI  23
$$

WIZ056-057-062-063-064-067-068-181800-
SOUTH CENTRAL WISCONSIN

CITY           SKY/WX    TMP DP  RH WIND       PRES   REMARKS
REEDSBURG      CLOUDY    32  30  93 SW7       29.87S FOG     WCI  26
BARABOO/DELLS  CLOUDY    33  29  88 SW9       29.86F FOG     WCI  25
LONE ROCK      CLOUDY    34  30  85 SW8       29.89F FOG     WCI  27
MINERAL POINT  CLOUDY    36  34  93 SW10      29.89S FOG     WCI  28
MADISON        CLOUDY    34  31  88 VRB6      29.89F FOG     WCI  29
MIDDLETON      CLOUDY    35  33  92 SW9       29.88F WCI  28
WATERTOWN      CLOUDY    33  33 100 SW8       29.88F FOG     WCI  26
MONROE         CLOUDY    32  32 100 SW17      29.89F FOG     WCI  21
JANESVILLE     CLOUDY    36  36 100 W9        29.91S FOG     WCI  29
$$

WIZ051-052-058>065-066-070>072-181800-
SOUTHEAST WISCONSIN

CITY           SKY/WX    TMP DP  RH WIND       PRES   REMARKS
MILWAUKEE      CLOUDY    38  34  85 W12G20    29.89S FOG     WCI  30
WAUKESHA       CLOUDY    32  32 100 W7        29.90R FOG     WCI  26
MILWAUKEE/TIMM CLOUDY    34  30  86 W13G18    29.89S FOG     WCI  25
RACINE         PTSUNNY   39  33  79 W16G29    29.90S WCI  30
BURLINGTON     CLOUDY    49  49 100 SW12G17   29.90S FOG
KENOSHA        PTSUNNY   41  34  76 W16       29.89F
FOND DU LAC    CLOUDY    33  28  81 SW10      29.85F HAZE    WCI  25
SHEBOYGAN      CLOUDY    33  31  92 W13       29.85F FOG     WCI  24
WEST BEND      CLOUDY    32  32 100 SW10      29.85F FOG     WCI  24
JUNEAU         CLOUDY    32  30  93 SW15      29.88F FOG     WCI  22
$$

LSZ147-162-181800-
LAKE SUPERIOR

STATION/POSITION TIME  TEMP    WIND        PRES    WAVE
                       AIR SEA DIR/SP/G            HT/PER
                 (UTC) (F)     (DEG/KT/KT) (MB)    (FT/S)
DEVILS ISLAND    1700   32     220/ 10/ 12 1005.6F
SAXON HARBOR     1630   33                 1005.8F
$$

LMZ867-665-643>646-181800-
LAKE MICHIGAN

STATION/POSITION TIME  TEMP    WIND        PRES    WAVE
                       AIR SEA DIR/SP/G            HT/PER
                 (UTC) (F)     (DEG/KT/KT) (MB)    (FT/S)
NORTHPORT PIER   1640   30      CALM  /  9 1009.1F
KEWAUNEE LAKESHO 1642   32     250/  7/ 12 1009.8F
SHEBOYGAN LAKESH 1700   34     240/ 11/ 14 1011.3F
PORT WASHINGTON  1630   35     260/  7/ 12 1012.9S
MILWAUKEE LAKESH 1650   37     270/ 12/ 15   N/A
KENOSHA   LAKESH 1700   40     270/ 14/ 17 1012.5
$$

TC  - TEMPERATURE IN CELSIUS
VSB - VISIBILITY IN STATUTE MILES
WCI - WIND CHILL INDEX
HX  - HEAT INDEX





USA.gov is the U.S. government's official web portal to all federal, state and local government web resources and services.